Regional Weather Roundup
Issued by NWS Charleston, SC

Current Version | Previous Version | Text Only | Print | Product List | Glossary Off
Versions: 1 2 3 4 5 6 7 8 9 10 11 12 13 14 15 16 17 18 19 20 21 22 23 24 25 26 27 28 29 30 31 32 33 34 35 36 37 38 39 40 41 42 43 44 45 46 47 48 49 50

000
ASUS42 KCHS 071112
RWRCHS

REGIONAL WEATHER ROUNDUP
NATIONAL WEATHER SERVICE CHARLESTON SC
700 AM EDT TUE JUL 07 2015

NOTE: "FAIR" INDICATES FEW OR NO CLOUDS BELOW 12,000 FEET WITH NO
SIGNIFICANT WEATHER AND/OR OBSTRUCTIONS TO VISIBILITY.

NOT ALL STATIONS ARE QUALITY CONTROLLED BY THE NATIONAL
WEATHER SERVICE. USE DATA WITH CAUTION...ESPECIALLY
DEWPOINT OBSERVATIONS.

SCZ027-030-031-034>040-042>050-071200-
...SOUTHEAST SOUTH CAROLINA...

CITY           SKY/WX    TMP DP  RH WIND       PRES   REMARKS
N CHARLESTON   PTCLDY    75  72  90 CALM      30.14R
WATERFRONT PAR   N/A     78  75  90 CALM      30.11R
MOUNT PLEASANT LGT RAIN  73  72  94 CALM      30.14R
JOHNS ISLAND   FAIR      75  73  94 CALM      30.14R
PINOPOLIS      NOT AVBL
MONCKS CORNER  FAIR      73  70  88 CALM      30.13R FOG
SUMMERVILLE    FAIR      72  72 100 CALM      30.14R
BEAUFORT MCAS  MOCLDY    75  72  90 CALM      30.14R
BEAUFORT ARPT  FAIR      73  73 100 CALM      30.14R
HILTON HEAD IS CLEAR     73  73 100 SW6       30.15R
WALTERBORO     PTSUNNY   72  70  94 CALM      30.14R
ALLENDALE      FAIR      72  72 100 CALM      30.13R

...SOUTHERN MIDLANDS AND PEE DEE...

CITY           SKY/WX    TMP DP  RH WIND       PRES   REMARKS
GEORGETOWN     NOT AVBL
KINGSTREE      NOT AVBL
ORANGEBURG     CLEAR     71  69  93 CALM      30.13R FOG
BARNWELL       FAIR      73  73 100 CALM      30.14R
AIKEN          NOT AVBL
MANNING        FAIR      72  72 100 SW3       30.13R
COLUMBIA       PTCLDY    73  70  90 S3        30.11R
SUMTER         CLEAR     73  71  95 S3        30.11R
FLORENCE       CLEAR     73  72  96 S3        30.13R
MYRTLE BEACH   CLEAR     75  70  83 CALM      30.15R
N MYRTLE BEACH CLEAR     76  73  91 SW6       30.14R

$$

GAZ063-065-086>088-099>101-113>116-118-119-134>141-150-071200-
...SOUTHEAST GEORGIA...

CITY           SKY/WX    TMP DP  RH WIND       PRES   REMARKS
SAVANNAH ARPT  PTCLDY    73  70  90 CALM      30.14R
HUNTER AAF     CLEAR     72  72 100 CALM      30.12R
FORT STEWART   CLEAR     73  71  91 CALM      30.12R
STATESBORO     NOT AVBL
SYLVANIA       SUNNY     74  74 100 CALM      30.14R
CLAXTON        FAIR      72  72 100 CALM      30.14R FOG

...CSRA...CENTRAL AND FAR SOUTHEAST GEORGIA...

CITY           SKY/WX    TMP DP  RH WIND       PRES   REMARKS
THOMSON        CLEAR     72  72 100 CALM      30.17R
AUGUSTA-BUSH   CLEAR     70  69  97 S3        30.11S
AUGUSTA-DANIEL CLEAR     74  70  87 CALM      30.13R
SWAINSBORO     FAIR     N/A N/A N/A CALM      30.15R
VIDALIA        CLEAR     72  70  94 SW3       30.15R
EASTMAN        FAIR      70  70 100 CALM      30.17R FOG
HAZLEHURST     FAIR      74  74 100 CALM      30.14R
ALMA           CLEAR     72  70  93 CALM      30.15R
WAYCROSS       CLEAR     74  74  99 CALM      30.15R
JESUP          FAIR      72  70  94 CALM      30.15R
BAXLEY         FAIR      72  72 100 CALM      30.14R FOG
BRUNSWICK      CLEAR     72  70  94 W3        30.15R
SAINT SIMONS   CLEAR     74  71  91 SW3       30.14R

$$

SCZ027-028-034-036>038-045-046-048>050-GAZ119-141-071200-
...LAKE AND SUPPLEMENTAL COASTAL OBSERVATIONS...

STATION/POSITION TIME  TEMP    WIND        PRES    WAVE   SWELL
                       AIR SEA DIR/SP/G            HT/PER HT/PER/DIR
                 (UTC) (F)     (DEG/KT/KT) (MB)    (FT/S) (FT/S/D)
UPR LAKE MARION  NOT AVBL
WINYAH BAY       0945   75     250/  3     1019.0
LAKE MURRAY      1000   77     240/  4/  5 1018.6S
ACE BASIN NERRS  NOT AVBL
FORT PULASKI     1000   75 83  240/  3/  4 1020.6R
SAPELO ISLAND    1000   75     250/  3     1020.0S

$$

ANZ835-935-AMZ111-154-330-350-352-354-370-450-454-472-071200-
...C-MAN AND BUOY OBSERVATIONS...

STATION/POSITION TIME  TEMP    WIND        PRES    WAVE   SWELL
                       AIR SEA DIR/SP/G            HT/PER HT/PER/DIR
                 (UTC) (F)     (DEG/KT/KT) (MB)    (FT/S) (FT/S/D)
BUOY 41004       1050   81 83  220/  6/  8 1020.3R   3/ 8   3/ 8
BUOY 41008       1050   78 79  240/  8/ 10 1020.9R   2/ 9   2/110/ 9
FOLLY BEACH CMAN 1000   78     230/  4/  5 1020.0R
CAPERS NEARSHORE 1008   80     240/  6/ 10 1020.3R
FRIPP NEARSHORE  1000   80     260/ 10/ 12 1019.8R


STATION/POSITION TIME  TEMP    WIND        PRES    WAVE   SWELL
                       AIR SEA DIR/SP/G            HT/PER HT/PER/DIR
                 (UTC) (F)     (DEG/KT/KT) (MB)    (FT/S) (FT/S/D)
5E ST. MARYS GA  1021      77                N/A     2/ 9
FRYING PAN BUOY  1050   80 79  240/  6/  8 1021.1R   3/ 8   3/120/ 8
BUOY 41025       1050   80 82  210/ 14/ 16 1020.3R   3/ 8   2/140/ 8
CAPE LOOKOUT NC  1000   79     220/  7/ 10 1020.0R
BUOY 41002       1050   82 80  200/  6/  8 1022.5R   4/ 8   3/140/ 8
BUOY 41010       1020   83 83  160/  8/ 10 1021.1R
ST AUGUSTINE FL  1100   72 71   CALM  /  1 1022.1R


$$



USA.gov is the U.S. government's official web portal to all federal, state and local government web resources and services.